Location: Newark
(54.2500°N, 9.1833°E)
Time: 01:30:59
(UTC+00:00)

Vanguard 2 Rocket - Pass Details

Date: 14 December 2019
Orbit: 554 x 3326 km, 32.9° (Epoch: 23 January)

Event Time Altitude Azimuth Distance (km) Brightness Sun altitude
Rises 18:29:20 0° 247° (WSW) 6,475 12.2 -29.0°
Reaches altitude 10° 18:35:24 10° 235° (SW) 4,961 11.3 -29.9°
Maximum altitude 18:44:16 22° 193° (SSW) 3,227 9.7 -31.2°
Enters shadow 18:47:55 17° 165° (SSE) 3,106 9.4 -31.7°
